• In Hungary
  • List of Countries
  • For 7 days
  • Water Temperature
  • Satellite Maps
  • Weather Map
  • News
  • Weather Widgets
  • user-avatar
    Login

    Hourly Weather Condratesti

    Today, 23 October, Tuesday

    Time Temperature Precipitation Wind Pressure Humidity
    00:00 +9°C° 0 mm 1 mps 755 mmHg 59%
    01:00 +9°C° 0 mm 1 mps 755 mmHg 60%
    02:00 +8°C° 0 mm 1 mps 755 mmHg 63%
    03:00 +8°C° 0 mm 1 mps 755 mmHg 65%
    04:00 +8°C° 0 mm 1 mps 754 mmHg 66%
    05:00 +7°C° 0 mm 1 mps 754 mmHg 67%
    06:00 +8°C° 0 mm 1 mps 754 mmHg 64%
    07:00 +9°C° 0 mm 1 mps 754 mmHg 62%
    08:00 +9°C° 0 mm 1 mps 754 mmHg 59%
    09:00 +10°C° 0 mm 2 mps 754 mmHg 55%
    10:00 +12°C° 0 mm 2 mps 753 mmHg 51%
    11:00 +14°C° 0 mm 2 mps 753 mmHg 47%
    12:00 +13°C° 0 mm 3 mps 752 mmHg 46%
    13:00 +14°C° 0 mm 3 mps 751 mmHg 45%
    14:00 +16°C° 0 mm 3 mps 750 mmHg 44%
    15:00 +14°C° 0 mm 3 mps 749 mmHg 47%
    16:00 +14°C° 0 mm 2 mps 749 mmHg 49%
    17:00 +14°C° 0 mm 2 mps 748 mmHg 52%
    18:00 +12°C° 0 mm 3 mps 747 mmHg 53%
    19:00 +12°C° 0 mm 4 mps 746 mmHg 54%
    20:00 +12°C° 0 mm 5 mps 745 mmHg 55%
    21:00 +12°C° 0.2 mm 5 mps 744 mmHg 58%
    22:00 +11°C° 0.2 mm 6 mps 744 mmHg 61%
    23:00 +11°C° 0.2 mm 6 mps 743 mmHg 63%

    Tomorrow, 24 October, Wednesday

    Time Temperature Precipitation Wind Pressure Humidity
    00:00 +11°C° 0.3 mm 6 mps 742 mmHg 61%
    01:00 +11°C° 0.3 mm 7 mps 741 mmHg 59%
    02:00 +10°C° 0.3 mm 7 mps 740 mmHg 58%
    03:00 +11°C° 0 mm 7 mps 739 mmHg 57%
    04:00 +11°C° 0 mm 6 mps 738 mmHg 56%
    05:00 +11°C° 0 mm 6 mps 737 mmHg 56%
    06:00 +11°C° 0.1 mm 6 mps 737 mmHg 57%
    07:00 +12°C° 0.1 mm 5 mps 736 mmHg 58%
    08:00 +12°C° 0.1 mm 5 mps 736 mmHg 59%
    09:00 +10°C° 1 mm 5 mps 735 mmHg 62%
    10:00 +10°C° 1 mm 6 mps 735 mmHg 65%
    11:00 +9°C° 1 mm 6 mps 735 mmHg 69%
    12:00 +10°C° 0.1 mm 7 mps 735 mmHg 60%
    13:00 +10°C° 0.1 mm 8 mps 734 mmHg 51%
    14:00 +11°C° 0.1 mm 9 mps 734 mmHg 42%
    15:00 +8°C° 0.1 mm 9 mps 735 mmHg 46%
    16:00 +7°C° 0.1 mm 10 mps 735 mmHg 50%
    17:00 +6°C° 0.1 mm 11 mps 736 mmHg 55%
    18:00 +5°C° 0 mm 10 mps 737 mmHg 53%
    19:00 +5°C° 0 mm 10 mps 737 mmHg 52%
    20:00 +5°C° 0 mm 10 mps 738 mmHg 50%
    21:00 +3°C° 0 mm 10 mps 738 mmHg 53%
    22:00 +3°C° 0 mm 9 mps 738 mmHg 56%
    23:00 +3°C° 0 mm 9 mps 738 mmHg 59%

    Day after tomorrow, 25 October, Thursday

    Time Temperature Precipitation Wind Pressure Humidity
    00:00 +3°C° 0 mm 10 mps 739 mmHg 59%
    01:00 +3°C° 0 mm 10 mps 739 mmHg 59%
    02:00 +3°C° 0 mm 11 mps 739 mmHg 58%
    03:00 +4°C° 0.1 mm 11 mps 739 mmHg 59%
    04:00 +4°C° 0.1 mm 11 mps 740 mmHg 61%
    05:00 +4°C° 0.1 mm 11 mps 740 mmHg 62%
    06:00 +4°C° 0.1 mm 11 mps 741 mmHg 61%
    07:00 +4°C° 0.1 mm 11 mps 742 mmHg 61%
    08:00 +4°C° 0.1 mm 11 mps 743 mmHg 61%
    09:00 +4°C° 0 mm 11 mps 743 mmHg 58%
    10:00 +6°C° 0 mm 10 mps 744 mmHg 55%
    11:00 +6°C° 0 mm 10 mps 744 mmHg 53%
    12:00 +6°C° 0 mm 9 mps 744 mmHg 50%
    13:00 +7°C° 0 mm 9 mps 744 mmHg 46%
    14:00 +9°C° 0 mm 8 mps 744 mmHg 43%
    15:00 +8°C° 0 mm 6 mps 744 mmHg 43%
    16:00 +8°C° 0 mm 4 mps 744 mmHg 43%
    17:00 +8°C° 0 mm 3 mps 744 mmHg 42%
    18:00 +8°C° 0.1 mm 3 mps 744 mmHg 45%
    19:00 +8°C° 0.1 mm 3 mps 743 mmHg 47%
    20:00 +7°C° 0.1 mm 4 mps 743 mmHg 49%
    21:00 +7°C° 0.4 mm 4 mps 743 mmHg 55%
    22:00 +7°C° 0.4 mm 5 mps 742 mmHg 60%
    23:00 +7°C° 0.4 mm 5 mps 742 mmHg 65%

    26 October, Friday

    Time Temperature Precipitation Wind Pressure Humidity
    00:00 +8°C° 0.2 mm 5 mps 742 mmHg 68%
    01:00 +8°C° 0.2 mm 6 mps 742 mmHg 71%
    02:00 +8°C° 0.2 mm 6 mps 742 mmHg 73%
    03:00 +7°C° 0 mm 6 mps 743 mmHg 73%
    04:00 +7°C° 0 mm 6 mps 743 mmHg 73%
    05:00 +5°C° 0 mm 6 mps 744 mmHg 73%
    06:00 +7°C° 0 mm 6 mps 745 mmHg 72%
    07:00 +7°C° 0 mm 6 mps 746 mmHg 71%
    08:00 +6°C° 0 mm 7 mps 746 mmHg 70%
    09:00 +8°C° 0 mm 7 mps 747 mmHg 65%
    10:00 +9°C° 0 mm 7 mps 747 mmHg 59%
    11:00 +10°C° 0 mm 7 mps 748 mmHg 54%
    12:00 +11°C° 0 mm 6 mps 748 mmHg 51%
    13:00 +11°C° 0 mm 6 mps 748 mmHg 49%
    14:00 +13°C° 0 mm 5 mps 748 mmHg 46%
    15:00 +12°C° 0 mm 4 mps 749 mmHg 49%
    16:00 +12°C° 0 mm 3 mps 749 mmHg 51%
    17:00 +12°C° 0 mm 2 mps 749 mmHg 54%
    18:00 +11°C° 0 mm 1 mps 750 mmHg 56%
    19:00 +11°C° 0 mm 1 mps 750 mmHg 58%
    20:00 +10°C° 0 mm 1 mps 750 mmHg 60%
    21:00 +10°C° 0 mm 1 mps 750 mmHg 60%
    22:00 +9°C° 0 mm 2 mps 751 mmHg 60%
    23:00 +9°C° 0 mm 2 mps 751 mmHg 60%

    27 October, Saturday

    Time Temperature Precipitation Wind Pressure Humidity
    00:00 +9°C° 0 mm 2 mps 751 mmHg 63%
    01:00 +8°C° 0 mm 2 mps 750 mmHg 65%
    02:00 +8°C° 0 mm 3 mps 750 mmHg 67%
    03:00 +8°C° 0 mm 3 mps 750 mmHg 70%
    04:00 +8°C° 0 mm 3 mps 750 mmHg 72%
    05:00 +8°C° 0 mm 3 mps 749 mmHg 75%
    06:00 +8°C° 0 mm 3 mps 749 mmHg 73%
    07:00 +8°C° 0 mm 3 mps 749 mmHg 71%
    08:00 +9°C° 0 mm 3 mps 749 mmHg 69%
    09:00 +11°C° 0 mm 4 mps 748 mmHg 64%
    10:00 +12°C° 0 mm 4 mps 748 mmHg 60%
    11:00 +14°C° 0 mm 4 mps 748 mmHg 55%
    12:00 +15°C° 0 mm 4 mps 747 mmHg 51%
    13:00 +17°C° 0 mm 5 mps 747 mmHg 48%
    14:00 +19°C° 0 mm 5 mps 746 mmHg 45%
    15:00 +19°C° 0 mm 4 mps 746 mmHg 47%
    16:00 +18°C° 0 mm 4 mps 746 mmHg 49%
    17:00 +17°C° 0 mm 3 mps 746 mmHg 51%
    18:00 +17°C° 0 mm 3 mps 746 mmHg 52%
    19:00 +17°C° 0 mm 3 mps 746 mmHg 53%
    20:00 +16°C° 0 mm 3 mps 746 mmHg 54%
    21:00 +16°C° 0 mm 3 mps 746 mmHg 56%
    22:00 +14°C° 0 mm 3 mps 746 mmHg 57%
    23:00 +14°C° 0 mm 3 mps 746 mmHg 59%

    28 October, Sunday

    Time Temperature Precipitation Wind Pressure Humidity
    00:00 +14°C° 0 mm 3 mps 746 mmHg 60%
    01:00 +14°C° 0 mm 3 mps 746 mmHg 61%
    02:00 +14°C° 0 mm 3 mps 746 mmHg 62%
    03:00 +13°C° 0 mm 3 mps 746 mmHg 62%
    04:00 +13°C° 0 mm 3 mps 746 mmHg 63%
    05:00 +13°C° 0 mm 3 mps 747 mmHg 64%
    06:00 +13°C° 0 mm 3 mps 747 mmHg 63%
    07:00 +14°C° 0 mm 3 mps 747 mmHg 62%
    08:00 +14°C° 0 mm 3 mps 747 mmHg 61%
    09:00 +17°C° 0 mm 3 mps 747 mmHg 54%
    10:00 +20°C° 0 mm 3 mps 747 mmHg 48%
    11:00 +22°C° 0 mm 4 mps 747 mmHg 42%
    12:00 +23°C° 0 mm 4 mps 747 mmHg 39%
    13:00 +23°C° 0 mm 5 mps 747 mmHg 37%
    14:00 +25°C° 0 mm 5 mps 746 mmHg 35%
    15:00 +23°C° 0 mm 4 mps 746 mmHg 38%
    16:00 +22°C° 0 mm 4 mps 746 mmHg 41%
    17:00 +21°C° 0 mm 4 mps 746 mmHg 44%
    18:00 +20°C° 0 mm 4 mps 746 mmHg 46%
    19:00 +20°C° 0 mm 4 mps 747 mmHg 47%
    20:00 +19°C° 0 mm 4 mps 747 mmHg 49%
    21:00 +18°C° 0 mm 4 mps 747 mmHg 52%
    22:00 +18°C° 0 mm 4 mps 747 mmHg 55%
    23:00 +17°C° 0 mm 4 mps 747 mmHg 58%

    29 October, Monday

    Time Temperature Precipitation Wind Pressure Humidity
    00:00 +17°C° 0 mm 4 mps 747 mmHg 65%
    01:00 +15°C° 0 mm 4 mps 746 mmHg 72%
    02:00 +14°C° 0 mm 4 mps 746 mmHg 80%
    03:00 +14°C° 0 mm 4 mps 746 mmHg 84%
    04:00 +14°C° 0 mm 5 mps 745 mmHg 87%
    05:00 +14°C° 0 mm 5 mps 745 mmHg 91%
    06:00 +14°C° 0 mm 6 mps 745 mmHg 87%
    07:00 +14°C° 0 mm 6 mps 745 mmHg 84%
    08:00 +14°C° 0 mm 7 mps 745 mmHg 80%
    09:00 +16°C° 0 mm 8 mps 744 mmHg 69%
    10:00 +18°C° 0 mm 9 mps 744 mmHg 58%
    11:00 +21°C° 0 mm 10 mps 744 mmHg 47%
    12:00 +22°C° 0 mm 10 mps 744 mmHg 42%
    13:00 +23°C° 0 mm 11 mps 743 mmHg 37%
    14:00 +24°C° 0 mm 11 mps 743 mmHg 33%
    15:00 +23°C° 0 mm 10 mps 743 mmHg 34%
    16:00 +22°C° 0 mm 9 mps 742 mmHg 36%
    17:00 +21°C° 0 mm 8 mps 742 mmHg 37%
    18:00 +21°C° 0 mm 8 mps 742 mmHg 39%
    19:00 +20°C° 0 mm 8 mps 742 mmHg 42%
    20:00 +20°C° 0 mm 8 mps 743 mmHg 44%
    21:00 +18°C° 0 mm 8 mps 743 mmHg 48%
    22:00 +18°C° 0 mm 8 mps 743 mmHg 51%
    23:00 +18°C° 0 mm 8 mps 743 mmHg 55%
    Show more